User: anonymous   Login
Location: Gellin
(53.4498°N, 14.3207°E)
Time: 17:49:01
(UTC+00:00)
Language:

Meteor 1-18 Rocket - Orbit

View from above orbital plane
View from above orbital plane
View from above satellite
View from above satellite

Ground track
Ground track

The orbit data is extracted from the following two-line orbital elements,

1 07364U 74052B   21129.25708201  .00000152  00000-0  83923-4 0  9995
2 07364  81.2339 210.9784 0050529 108.6828 251.9835 14.06039570400960
Epoch (UTC): 09 May 2021 06:10:11
Eccentricity: 0.0050529
inclination: 81.2339°
perigee height: 836 km
apogee height: 909 km
right ascension of ascending node: 210.9784°
argument of perigee: 108.6828°
revolutions per day: 14.06039570
mean anomaly at epoch: 251.9835°
orbit number at epoch: 40096

The dashed part of the orbit path shows where the satellite is in the earth's shadow,  

DLR